When you browse on this site, cookies collect data to enhance your experience and personalize the content and advertising you see.
Visit our Privacy Policy to learn more. By continuing to use the site, you agree to this use of cookies and data.
  • In Switzerland
  • List of Countries
  • For 7 days
  • Water Temperature
  • Satellite Maps
  • Weather Map
  • Weather Widgets
  • user-avatar
    Login

    Hourly Weather Can Tho

    Today, 17 July, Wednesday

    Time Temperature Precipitation Wind Pressure Humidity
    00:00 +27°C° 0.2 mm 3 mps 755 mmHg 90%
    01:00 +27°C° 0.2 mm 3 mps 754 mmHg 91%
    02:00 +27°C° 0.1 mm 2 mps 754 mmHg 91%
    03:00 +27°C° 0.1 mm 2 mps 754 mmHg 92%
    04:00 +27°C° 0.1 mm 2 mps 753 mmHg 92%
    05:00 +27°C° 0.3 mm 2 mps 753 mmHg 91%
    06:00 +28°C° 0.3 mm 2 mps 754 mmHg 90%
    07:00 +28°C° 0.3 mm 3 mps 754 mmHg 89%
    08:00 +29°C° 0.2 mm 4 mps 754 mmHg 84%
    09:00 +32°C° 0.2 mm 5 mps 754 mmHg 79%
    10:00 +33°C° 0.2 mm 6 mps 754 mmHg 74%
    11:00 +32°C° 1 mm 6 mps 754 mmHg 75%
    12:00 +32°C° 1 mm 6 mps 753 mmHg 77%
    13:00 +32°C° 1 mm 6 mps 753 mmHg 78%
    14:00 +30°C° 0.8 mm 5 mps 752 mmHg 79%
    15:00 +30°C° 0.8 mm 5 mps 752 mmHg 80%
    16:00 +30°C° 0.8 mm 5 mps 751 mmHg 81%
    17:00 +29°C° 0.6 mm 4 mps 752 mmHg 82%
    18:00 +29°C° 0.6 mm 4 mps 753 mmHg 84%
    19:00 +29°C° 0.6 mm 4 mps 753 mmHg 85%
    20:00 +28°C° 0.3 mm 3 mps 754 mmHg 86%
    21:00 +28°C° 0.3 mm 2 mps 754 mmHg 87%
    22:00 +28°C° 0.3 mm 2 mps 755 mmHg 89%
    23:00 +28°C° 1.1 mm 2 mps 755 mmHg 90%

    Tomorrow, 18 July, Thursday

    Time Temperature Precipitation Wind Pressure Humidity
    00:00 +27°C° 1.1 mm 2 mps 754 mmHg 92%
    01:00 +27°C° 1.1 mm 2 mps 754 mmHg 93%
    02:00 +27°C° 0.7 mm 2 mps 754 mmHg 93%
    03:00 +27°C° 0.7 mm 2 mps 753 mmHg 92%
    04:00 +27°C° 0.7 mm 2 mps 753 mmHg 92%
    05:00 +27°C° 0 mm 2 mps 753 mmHg 91%
    06:00 +27°C° 0 mm 2 mps 753 mmHg 91%
    07:00 +27°C° 0 mm 2 mps 754 mmHg 90%
    08:00 +28°C° 0.9 mm 3 mps 754 mmHg 87%
    09:00 +29°C° 0.9 mm 4 mps 754 mmHg 84%
    10:00 +30°C° 0.9 mm 5 mps 754 mmHg 81%
    11:00 +30°C° 0.3 mm 5 mps 754 mmHg 81%
    12:00 +29°C° 0.3 mm 5 mps 754 mmHg 82%
    13:00 +29°C° 0.3 mm 6 mps 753 mmHg 83%
    14:00 +29°C° 0 mm 5 mps 753 mmHg 84%
    15:00 +28°C° 0 mm 5 mps 752 mmHg 85%
    16:00 +28°C° 0 mm 4 mps 752 mmHg 86%
    17:00 +28°C° 0 mm 4 mps 752 mmHg 87%
    18:00 +28°C° 0 mm 3 mps 753 mmHg 87%
    19:00 +28°C° 0 mm 3 mps 754 mmHg 88%
    20:00 +27°C° 0 mm 2 mps 754 mmHg 88%
    21:00 +27°C° 0 mm 2 mps 754 mmHg 88%
    22:00 +27°C° 0 mm 2 mps 755 mmHg 89%
    23:00 +27°C° 0 mm 2 mps 755 mmHg 89%

    Day after tomorrow, 19 July, Friday

    Time Temperature Precipitation Wind Pressure Humidity
    00:00 +27°C° 0 mm 2 mps 754 mmHg 89%
    01:00 +27°C° 0 mm 2 mps 754 mmHg 90%
    02:00 +27°C° 0 mm 2 mps 754 mmHg 90%
    03:00 +27°C° 0 mm 2 mps 753 mmHg 90%
    04:00 +27°C° 0 mm 2 mps 753 mmHg 91%
    05:00 +27°C° 0 mm 2 mps 753 mmHg 90%
    06:00 +27°C° 0 mm 2 mps 754 mmHg 89%
    07:00 +28°C° 0 mm 2 mps 754 mmHg 88%
    08:00 +28°C° 0.1 mm 2 mps 755 mmHg 87%
    09:00 +29°C° 0.1 mm 2 mps 755 mmHg 85%
    10:00 +29°C° 0.1 mm 2 mps 755 mmHg 84%
    11:00 +29°C° 0.5 mm 3 mps 755 mmHg 84%
    12:00 +29°C° 0.5 mm 3 mps 754 mmHg 84%
    13:00 +29°C° 0.5 mm 4 mps 754 mmHg 84%
    14:00 +30°C° 0.1 mm 4 mps 753 mmHg 82%
    15:00 +30°C° 0.1 mm 4 mps 753 mmHg 79%
    16:00 +32°C° 0.1 mm 4 mps 753 mmHg 76%
    17:00 +30°C° 0 mm 4 mps 753 mmHg 80%
    18:00 +29°C° 0 mm 3 mps 753 mmHg 84%
    19:00 +28°C° 0 mm 2 mps 754 mmHg 88%
    20:00 +28°C° 0 mm 2 mps 754 mmHg 88%
    21:00 +28°C° 0 mm 2 mps 755 mmHg 89%
    22:00 +27°C° 0 mm 2 mps 755 mmHg 90%
    23:00 +27°C° 0 mm 2 mps 755 mmHg 90%

    20 July, Saturday

    Time Temperature Precipitation Wind Pressure Humidity
    00:00 +27°C° 0 mm 2 mps 755 mmHg 90%
    01:00 +27°C° 0 mm 2 mps 754 mmHg 91%
    02:00 +27°C° 0 mm 2 mps 754 mmHg 91%
    03:00 +27°C° 0 mm 2 mps 754 mmHg 91%
    04:00 +27°C° 0 mm 2 mps 754 mmHg 91%
    05:00 +28°C° 0.2 mm 3 mps 754 mmHg 91%
    06:00 +28°C° 0.2 mm 3 mps 754 mmHg 90%
    07:00 +28°C° 0.2 mm 3 mps 755 mmHg 89%
    08:00 +29°C° 0.3 mm 4 mps 755 mmHg 83%
    09:00 +32°C° 0.3 mm 4 mps 755 mmHg 77%
    10:00 +33°C° 0.3 mm 4 mps 755 mmHg 72%
    11:00 +33°C° 1.4 mm 5 mps 755 mmHg 72%
    12:00 +33°C° 1.4 mm 5 mps 754 mmHg 72%
    13:00 +34°C° 1.4 mm 5 mps 754 mmHg 72%
    14:00 +33°C° 2.2 mm 5 mps 753 mmHg 76%
    15:00 +32°C° 2.2 mm 5 mps 753 mmHg 79%
    16:00 +30°C° 2.2 mm 5 mps 753 mmHg 82%
    17:00 +29°C° 1 mm 5 mps 753 mmHg 85%
    18:00 +29°C° 1 mm 4 mps 754 mmHg 87%
    19:00 +28°C° 1 mm 4 mps 754 mmHg 90%
    20:00 +28°C° 0 mm 3 mps 755 mmHg 91%
    21:00 +27°C° 0 mm 2 mps 755 mmHg 92%
    22:00 +27°C° 0 mm 2 mps 756 mmHg 93%
    23:00 +27°C° 0 mm 2 mps 756 mmHg 93%

    21 July, Sunday

    Time Temperature Precipitation Wind Pressure Humidity
    00:00 +27°C° 0 mm 2 mps 755 mmHg 93%
    01:00 +27°C° 0 mm 2 mps 755 mmHg 93%
    02:00 +27°C° 0 mm 1 mps 755 mmHg 93%
    03:00 +27°C° 0 mm 1 mps 754 mmHg 94%
    04:00 +27°C° 0 mm 1 mps 754 mmHg 94%
    05:00 +27°C° 0.1 mm 2 mps 754 mmHg 92%
    06:00 +28°C° 0.1 mm 2 mps 755 mmHg 90%
    07:00 +28°C° 0.1 mm 2 mps 755 mmHg 89%
    08:00 +29°C° 0.4 mm 3 mps 755 mmHg 84%
    09:00 +32°C° 0.4 mm 4 mps 755 mmHg 79%
    10:00 +33°C° 0.4 mm 4 mps 755 mmHg 74%
    11:00 +33°C° 1.8 mm 5 mps 755 mmHg 74%
    12:00 +33°C° 1.8 mm 5 mps 754 mmHg 74%
    13:00 +33°C° 1.8 mm 5 mps 754 mmHg 74%
    14:00 +33°C° 2.1 mm 5 mps 753 mmHg 76%
    15:00 +32°C° 2.1 mm 5 mps 753 mmHg 77%
    16:00 +32°C° 2.1 mm 5 mps 752 mmHg 79%
    17:00 +30°C° 0.7 mm 4 mps 753 mmHg 82%
    18:00 +29°C° 0.7 mm 4 mps 753 mmHg 86%
    19:00 +28°C° 0.7 mm 3 mps 754 mmHg 90%
    20:00 +28°C° 0.4 mm 3 mps 754 mmHg 90%
    21:00 +28°C° 0.4 mm 3 mps 755 mmHg 91%
    22:00 +27°C° 0.4 mm 3 mps 755 mmHg 92%
    23:00 +27°C° 0.6 mm 3 mps 755 mmHg 91%

    22 July, Monday

    Time Temperature Precipitation Wind Pressure Humidity
    00:00 +27°C° 0.6 mm 3 mps 755 mmHg 90%
    01:00 +27°C° 0.6 mm 4 mps 754 mmHg 89%
    02:00 +27°C° 1.3 mm 4 mps 754 mmHg 90%
    03:00 +27°C° 1.3 mm 3 mps 754 mmHg 91%
    04:00 +27°C° 1.3 mm 3 mps 754 mmHg 92%
    05:00 +27°C° 2.4 mm 3 mps 754 mmHg 92%
    06:00 +27°C° 2.4 mm 3 mps 755 mmHg 92%
    07:00 +27°C° 2.4 mm 2 mps 755 mmHg 93%
    08:00 +28°C° 1.3 mm 3 mps 755 mmHg 89%
    09:00 +29°C° 1.3 mm 4 mps 755 mmHg 86%
    10:00 +30°C° 1.3 mm 5 mps 755 mmHg 83%
    11:00 +30°C° 1.5 mm 5 mps 755 mmHg 83%
    12:00 +30°C° 1.5 mm 6 mps 754 mmHg 83%
    13:00 +30°C° 1.5 mm 6 mps 754 mmHg 83%
    14:00 +29°C° 0.4 mm 6 mps 753 mmHg 83%
    15:00 +29°C° 0.4 mm 5 mps 753 mmHg 84%
    16:00 +28°C° 0.4 mm 5 mps 753 mmHg 85%
    17:00 +28°C° 0.1 mm 4 mps 753 mmHg 86%
    18:00 +27°C° 0.1 mm 4 mps 753 mmHg 88%
    19:00 +27°C° 0.1 mm 3 mps 754 mmHg 90%
    20:00 +27°C° 0.3 mm 3 mps 754 mmHg 91%
    21:00 +27°C° 0.3 mm 2 mps 755 mmHg 92%
    22:00 +27°C° 0.3 mm 2 mps 756 mmHg 93%
    23:00 +27°C° 0.2 mm 2 mps 755 mmHg 93%
    Show more